Location: Unspecified
(49.2170°N, 0.0000°E)
Time: 10:09:48
(UTC+00:00)

A-11 Canister half - Visible Passes

Search period start: 18 June 2021 00:00
Search period end: 28 June 2021 00:00
Orbit: 1513 x 1686 km, 47.2° (Epoch: 17 June)

Date Brightness Start Highest point End Pass type
(mag) Time Alt. Az. Time Alt. Az. Time Alt. Az.
20 Jun 10.3 03:04:52 10° S 03:12:57 29° SE 03:20:50 10° E visible
21 Jun 10.3 02:42:14 10° S 02:50:06 27° SE 02:57:48 10° E visible
22 Jun 10.3 02:19:36 10° S 02:27:16 25° SE 02:34:47 10° E visible
23 Jun 10.4 01:57:08 10° S 02:04:26 24° SE 02:11:44 10° E visible
24 Jun 10.4 01:35:16 12° S 01:41:36 23° SE 01:48:41 10° E visible
25 Jun 10.4 01:13:20 13° SSE 01:18:47 21° SE 01:25:34 10° E visible
25 Jun 9.5 03:12:28 10° SW 03:22:08 53° SSE 03:31:32 10° ENE visible
26 Jun 10.4 00:51:22 14° SSE 00:55:57 20° SE 01:02:28 10° E visible
26 Jun 9.5 02:49:38 10° SW 02:59:14 51° SSE 03:08:37 10° ENE visible
27 Jun 10.4 00:29:20 15° SSE 00:33:09 18° SE 00:39:18 10° E visible
27 Jun 9.5 02:27:30 13° SW 02:36:21 49° SSE 02:45:41 10° ENE visible
